Tracking 20712 objects as of 28-May-2020
HD Live streaming from Space Station
objects crossing your sky now

OICETS

Track OICETS now!
10-day predictions
OICETS is classified as:


NORAD ID: 28809
Int'l Code: 2005-031A
Perigee: 564.1 km
Apogee: 582.6 km
Inclination: 98.0 °
Period: 96.0 minutes
Semi major axis: 6944 km
RCS: 1.711 m2 (large)
Launch date: August 23, 2005
Source: Japan (JPN)
Launch site: TYURATAM MISSILE AND SPACE COMPLEX (TTMTR)

Study inter-satellite communications.
aabbcc
Your satellite tracking list
Your tracking list is empty




NASA's NSSDC Master Catalog

Two Line Element Set (TLE):
1 28809U 05031A   20149.28319875 -.00000635  00000-0 -45613-4 0  9994
2 28809  97.9528 259.2823 0013311 347.8631  12.2269 15.00231803805458
Source of the keplerian elements: AFSPC